Tignall, GA

1:14 PM EDT on July 24, 2016 (GMT -0400)
Washington-Wilkes County

Weather History for KIIY - February, 2013

Change the Weather History Date:

Saturday, February 16, 2013

  Actual Average (KDBN) Record (KDBN)
Temperature  
Mean Temperature 40 °F -  
Max Temperature 46 °F 64 °F 83 °F (1989)
Min Temperature 33 °F 36 °F 12 °F (1958)
Degree Days  
Heating Degree Days 26    
Moisture  
Dew Point 22 °F    
Average Humidity 51    
Maximum Humidity 93    
Minimum Humidity 21    
Precipitation  
Precipitation 0.00 in - - ()
Sea Level Pressure  
Sea Level Pressure 29.97 in    
Wind  
Wind Speed 8 mph (WNW)    
Max Wind Speed 23 mph    
Max Gust Speed 34 mph    
Visibility 10 miles    
Events Rain    
Averages and records for this station are not official NWS values.
T = Trace of Precipitation, MM = Missing Value Source: NWS Daily Summary

Daily Weather History Graph

Daily Weather History Graph

Search for Another Location

Airport or City:

Trip Planner

Search our weather history database for the weather conditions in past years. The results will help you decide how hot, cold, wet, or windy it might be!

Date:

Astronomy

Feb. 16, 2013 Rise Set
Actual Time 7:14 AM EST 6:16 PM EST
Civil Twilight 6:48 AM EST 6:42 PM EST
Nautical Twilight 6:19 AM EST 7:11 PM EST
Astronomical Twilight 5:50 AM EST 7:40 PM EST
Moon 10:47 AM EST (2/16) No Moon Set
Length of Visible Light 11h 53m
Length of Day
11h 02m
Waxing Crescent, 39% of the Moon is Illuminated
Feb 16
Waxing Crescent
Feb 17
First Quarter
Feb 25
Full
Mar 4
Last Quarter
Mar 11
New

Hourly Weather History & Observations

Time (EST) Temp. Windchill Dew Point Humidity Pressure Visibility Wind Dir Wind Speed Gust Speed Precip Events Conditions
12:15 AM 44.6 °F 41.4 °F 33.8 °F 66% 29.97 in 10.0 mi NW 5.8 mph - N/A   Clear
12:35 AM 44.6 °F 41.4 °F 32.0 °F 61% 29.97 in 10.0 mi NW 5.8 mph - N/A   Clear
12:55 AM 44.6 °F 40.7 °F 33.8 °F 66% 29.97 in 10.0 mi WNW 6.9 mph - N/A   Clear
1:15 AM 44.6 °F 40.2 °F 32.0 °F 61% 29.97 in 10.0 mi NW 8.1 mph - N/A   Clear
1:35 AM 44.6 °F 40.7 °F 32.0 °F 61% 29.97 in 10.0 mi NW 6.9 mph - N/A   Clear
1:55 AM 44.6 °F 42.2 °F 32.0 °F 61% 29.96 in 10.0 mi NW 4.6 mph - N/A   Clear
2:15 AM 44.6 °F 42.2 °F 32.0 °F 61% 29.96 in 10.0 mi NW 4.6 mph - N/A   Clear
2:35 AM 44.6 °F 42.2 °F 32.0 °F 61% 29.95 in 10.0 mi WNW 4.6 mph - N/A   Clear
2:55 AM 44.6 °F 41.4 °F 32.0 °F 61% 29.95 in 10.0 mi WNW 5.8 mph - N/A   Clear
3:15 AM 44.6 °F 42.2 °F 32.0 °F 61% 29.94 in 10.0 mi WNW 4.6 mph - N/A   Scattered Clouds
3:35 AM 44.6 °F 42.2 °F 33.8 °F 66% 29.94 in 10.0 mi NW 4.6 mph - N/A   Scattered Clouds
3:55 AM 44.6 °F 42.2 °F 32.0 °F 61% 29.94 in 10.0 mi WNW 4.6 mph - N/A   Clear
4:15 AM 44.6 °F 41.4 °F 32.0 °F 61% 29.93 in 10.0 mi NW 5.8 mph - N/A   Clear
4:35 AM 44.6 °F - 32.0 °F 61% 29.94 in 10.0 mi Calm Calm - N/A   Mostly Cloudy
4:55 AM 42.8 °F 40.1 °F 32.0 °F 66% 29.94 in 10.0 mi NNW 4.6 mph - N/A   Scattered Clouds
5:15 AM 42.8 °F 41.1 °F 33.8 °F 70% 29.94 in 10.0 mi NNW 3.5 mph - N/A   Scattered Clouds
5:35 AM 42.8 °F 40.1 °F 33.8 °F 70% 29.95 in 10.0 mi NW 4.6 mph - N/A   Clear
5:55 AM 42.8 °F 41.1 °F 33.8 °F 70% 29.95 in 10.0 mi North 3.5 mph - N/A   Clear
6:15 AM 42.8 °F 39.3 °F 35.6 °F 76% 29.95 in 10.0 mi North 5.8 mph - N/A Rain Rain
6:35 AM 41.0 °F 39.0 °F 37.4 °F 87% 29.95 in 7.0 mi NNE 3.5 mph - N/A Rain Rain
6:55 AM 41.0 °F - 37.4 °F 87% 29.96 in 7.0 mi Calm Calm - N/A Rain Rain
7:15 AM 41.0 °F 38.0 °F 37.4 °F 87% 29.96 in 10.0 mi SW 4.6 mph - N/A Rain Light Rain
7:35 AM 41.0 °F - 37.4 °F 87% 29.96 in 10.0 mi Calm Calm - N/A Rain Light Rain
7:55 AM 41.0 °F 38.0 °F 39.2 °F 93% 29.96 in 10.0 mi SW 4.6 mph - N/A   Light Drizzle
8:15 AM 41.0 °F 36.4 °F 37.4 °F 87% 29.98 in 10.0 mi NW 6.9 mph - N/A   Drizzle
8:35 AM 41.0 °F 39.0 °F 35.6 °F 81% 29.96 in 10.0 mi NNW 3.5 mph - N/A   Light Drizzle
8:55 AM 41.0 °F - 35.6 °F 81% 29.97 in 10.0 mi Calm Calm - N/A   Clear
9:15 AM 41.0 °F 39.0 °F 35.6 °F 81% 29.96 in 10.0 mi WSW 3.5 mph - N/A   Clear
9:35 AM 41.0 °F 39.0 °F 37.4 °F 87% 29.97 in 10.0 mi WSW 3.5 mph - N/A   Clear
9:55 AM 41.0 °F - 35.6 °F 81% 29.95 in 10.0 mi Calm Calm - N/A   Clear
10:15 AM 42.8 °F 40.1 °F 35.6 °F 76% 29.96 in 10.0 mi WSW 4.6 mph - N/A   Clear
10:35 AM 42.8 °F 40.1 °F 33.8 °F 70% 29.96 in 10.0 mi WSW 4.6 mph - N/A   Clear
1:15 PM 46.4 °F 39.2 °F 17.6 °F 32% 29.90 in 10.0 mi WNW 18.4 mph 26.5 mph N/A   Clear
1:35 PM 46.4 °F 38.7 °F 17.6 °F 32% 29.89 in 10.0 mi West 20.7 mph 32.2 mph N/A   Clear
1:55 PM 46.4 °F 39.5 °F 14.0 °F 27% 29.89 in 10.0 mi West 17.3 mph 27.6 mph N/A   Clear
2:15 PM 46.4 °F 39.8 °F 14.0 °F 27% 29.88 in 10.0 mi West 16.1 mph 29.9 mph N/A   Clear
2:35 PM 46.4 °F 38.5 °F 10.4 °F 23% 29.88 in 10.0 mi West 21.9 mph 29.9 mph N/A   Clear
2:55 PM 46.4 °F 39.8 °F 10.4 °F 23% 29.88 in 10.0 mi WNW 16.1 mph 28.8 mph N/A   Clear
3:15 PM 46.4 °F 39.0 °F 8.6 °F 22% 29.88 in 10.0 mi West 19.6 mph 26.5 mph N/A   Clear
3:35 PM 46.4 °F 39.0 °F 8.6 °F 22% 29.88 in 10.0 mi WNW 19.6 mph 31.1 mph N/A   Clear
3:55 PM 44.6 °F 36.9 °F 8.6 °F 23% 29.89 in 10.0 mi WNW 18.4 mph 29.9 mph N/A   Clear
4:15 PM 44.6 °F 36.1 °F 8.6 °F 23% 29.90 in 10.0 mi WNW 21.9 mph 29.9 mph N/A   Clear
4:35 PM 44.6 °F 37.8 °F 6.8 °F 21% 29.91 in 10.0 mi WNW 15.0 mph 32.2 mph N/A   Clear
4:55 PM 42.8 °F 34.8 °F 8.6 °F 25% 29.91 in 10.0 mi WNW 17.3 mph 28.8 mph N/A   Clear
5:15 PM 42.8 °F 34.3 °F 8.6 °F 25% 29.93 in 10.0 mi WNW 19.6 mph 32.2 mph N/A   Clear
5:35 PM 41.0 °F 32.8 °F 6.8 °F 24% 29.94 in 10.0 mi WNW 16.1 mph 26.5 mph N/A   Clear
5:55 PM 41.0 °F 31.1 °F 6.8 °F 24% 29.96 in 10.0 mi WNW 23.0 mph 34.5 mph N/A   Clear
6:15 PM 39.2 °F 30.2 °F 5.0 °F 24% 29.97 in 10.0 mi WNW 17.3 mph 26.5 mph N/A   Clear
6:35 PM 37.4 °F 28.9 °F 6.8 °F 28% 29.98 in 10.0 mi NW 13.8 mph 21.9 mph N/A   Clear
6:55 PM 37.4 °F 28.9 °F 8.6 °F 30% 30.00 in 10.0 mi WNW 13.8 mph 18.4 mph N/A   Clear
7:15 PM 37.4 °F 28.9 °F 8.6 °F 30% 30.01 in 10.0 mi NW 13.8 mph 25.3 mph N/A   Clear
7:35 PM 37.4 °F 29.8 °F 8.6 °F 30% 30.02 in 10.0 mi WNW 11.5 mph 21.9 mph N/A   Clear
7:55 PM 37.4 °F 28.5 °F 8.6 °F 30% 30.03 in 10.0 mi WNW 15.0 mph 20.7 mph N/A   Clear
8:15 PM 37.4 °F 29.8 °F 8.6 °F 30% 30.04 in 10.0 mi WNW 11.5 mph 24.2 mph N/A   Clear
8:35 PM 35.6 °F 25.9 °F 8.6 °F 33% 30.05 in 10.0 mi WNW 16.1 mph 20.7 mph N/A   Clear
8:55 PM 35.6 °F 26.2 °F 8.6 °F 33% 30.06 in 10.0 mi WNW 15.0 mph 24.2 mph N/A   Clear
9:15 PM 35.6 °F 29.9 °F 8.6 °F 33% 30.07 in 10.0 mi WNW 6.9 mph - N/A   Clear
9:35 PM 33.8 °F 27.7 °F 8.6 °F 35% 30.08 in 10.0 mi WNW 6.9 mph - N/A   Clear
9:55 PM 33.8 °F 25.3 °F 8.6 °F 35% 30.09 in 10.0 mi WNW 11.5 mph 18.4 mph N/A   Clear
10:15 PM 33.8 °F 27.0 °F 8.6 °F 35% 30.09 in 10.0 mi WNW 8.1 mph 17.3 mph N/A   Clear
10:35 PM 33.8 °F 27.0 °F 10.4 °F 38% 30.09 in 10.0 mi NW 8.1 mph - N/A   Clear
10:55 PM 33.8 °F 27.0 °F 12.2 °F 41% 30.10 in 10.0 mi WNW 8.1 mph - N/A   Clear
11:15 PM 33.8 °F 25.8 °F 12.2 °F 41% 30.09 in 10.0 mi WNW 10.4 mph - N/A   Clear
11:35 PM 33.8 °F 26.4 °F 12.2 °F 41% 30.09 in 10.0 mi WNW 9.2 mph - N/A   Clear
11:55 PM 33.8 °F 26.4 °F 14.0 °F 44% 30.10 in 10.0 mi WNW 9.2 mph - N/A   Clear